Flag for U.S.A. Weather past 2 weeks in Fort Wayne, Indiana, U.S.A.

Now
70 °F

Mostly cloudy.


Feels Like: 75 °F
Forecast: 67 / 80 °F
Wind: 14 mph from South

Location: Fort Wayne International Airport

Current Time: May 25, 2015 at 5:42:23 AM

Latest Report: May 25, 2015 at 4:54 AM


Visibility: 10 mi

Pressure: 29.98 "Hg

Humidity: 64%

Dew point: 57 °F

Location of Fort WayneLocation

Historic Weather in Fort Wayne — Graph

°F

Fort Wayne temperature yesterday

Maximum temperature yesterday: 82 °F (at 3:54 PM)
Minimum temperature yesterday: 55 °F (at 4:54 AM)
Average temperature yesterday: 70 °F

Past Weeks' High & Low Weather Summary

 TemperatureHumidityPressure
High82 °F (May 17, 4:54 PM)97% (May 10, 3:54 AM)30.45 "Hg (May 10, 3:54 AM)
Low37 °F (May 20, 3:54 AM)28% (May 22, 3:54 PM)29.80 "Hg (May 11, 4:54 PM)
Average62 °F70%30.13 "Hg
* Reported May 10 3:54 AM — May 25 3:54 AM, Fort Wayne, Weather by CustomWeather, © 2015

Note: Actual official high and low records may vary slightly from our data, if they occured in-between our weather recording intervals... More about our weather records

Advertising

Fort Wayne weather history for previous 24 hours

 ConditionsComfort  
Time TempWeatherWind HumidityBarometerVisibility
3:54 AM
Mon, May 25
69 °FPassing clouds.13 mph63%29.99 "Hg10 mi
2:54 AM70 °FPassing clouds.14 mph59%30.01 "Hg10 mi
1:54 AM70 °FPassing clouds.12 mph59%30.03 "Hg10 mi
12:54 AM71 °FPassing clouds.13 mph57%30.04 "Hg10 mi
11:54 PM
Sun, May 24
72 °FPassing clouds.13 mph53%30.04 "Hg10 mi
10:54 PM73 °FPassing clouds.13 mph51%30.06 "Hg10 mi
9:54 PM72 °FScattered clouds.10 mph53%30.05 "Hg10 mi
8:54 PM76 °FBroken clouds.12 mph47%30.05 "Hg10 mi
7:54 PM79 °FPartly sunny.13 mph44%30.04 "Hg10 mi
6:54 PM80 °FBroken clouds.17 mph38%30.06 "Hg10 mi
5:54 PM82 °FScattered clouds.17 mph37%30.08 "Hg10 mi
4:54 PM82 °FScattered clouds.14 mph38%30.10 "Hg10 mi
3:54 PM82 °FBroken clouds.13 mph40%30.13 "Hg10 mi
2:54 PM81 °FScattered clouds.15 mph44%30.15 "Hg10 mi
1:54 PM78 °FMostly cloudy.9 mph46%30.18 "Hg10 mi
12:54 PM76 °FOvercast.8 mph52%30.20 "Hg10 mi
11:54 AM75 °FOvercast.14 mph52%30.22 "Hg10 mi
10:54 AM70 °FBroken clouds.9 mph55%30.24 "Hg10 mi
9:54 AM69 °FBroken clouds.13 mph53%30.24 "Hg10 mi
8:54 AM67 °FPartly sunny.9 mph57%30.24 "Hg10 mi
7:54 AM60 °FPartly sunny.3 mph69%30.26 "Hg10 mi
6:54 AM55 °FPassing clouds.3 mph77%30.26 "Hg10 mi
5:54 AM55 °FPassing clouds.No wind74%30.25 "Hg10 mi
Weather by CustomWeather, © 2015

See weather overviewHow to use our weather pages